Location: *
(40.7873°S, 98.7174°E)
Time: 01:34:41
(UTC+00:00)

ARIANE 6 FM1 Upper Stage - Pass Details

Date: 15 December 2025
Orbit: 522 x 610 km, 62.0° (Epoch: 20 January)

Event Time Altitude Azimuth Distance (km) Brightness Sun altitude
Rises 20:26:35 0° 225° (SW) 2,900 6.3 -12.7°
Reaches altitude 10° 20:29:01 10° 233° (SW) 1,980 5.4 -12.4°
Maximum altitude 20:33:07 35° 299° (WNW) 976 3.4 -11.9°
Drops below altitude 10° 20:37:05 10° 4° (N) 1,916 5.0 -11.3°
Sets 20:39:25 0° 13° (NNE) 2,793 5.9 -11.0°
